Showing default

GLOBALSTAR M070, 32264

Orbit data source: Space-Track

GLOBALSTAR M070, 32264 is a payload satellite owned by Globalstar (US) in LEO that was launched on Sat, 20 Oct 2007 UTC via a SOYUZ-FG launch vehicle from the Tyuratam Missile And Space Complex (TTMTR). Payloads include a variety of satellites, spacecraft, and rockets equipped with specific instruments for various scientific and technological missions. These include communications satellites like Starlink; space stations such as the ISS; scientific satellites like the Hubble; Earth observation satellites from companies like Planet Labs, Umbra, and HawkEye 360; GPS; miniature CubeSats for education and research; and military/defense satellites.

Loading next visibility...
GLOBALSTAR M070 details
Identifier
32264, 2007-048B
Orbit
LEO
Last TLE update7 hours ago
Origin
Flag of USGlobalstar (US / GLOB)
ManufacturerSS/Loral
MissionOperational Commercial Communications
Bus & MotorLS-400, LS-400 AOCS
Mass450 kg wet, 380 kg dry
Launch date (UTC)
2007-10-20 (17 years ago)
Launch vehicle
SOYUZ-FG
Launch site
Tyuratam Missile And Space Complex (TTMTR)
Object type
Payload
Rocket body
Debris
Shape & HBRBox + 2 Pan, 12 m
Radar Cross Section5.587 m², Large (>1 m²)

Expand to show TLE details & history

TLE from 7 hours ago
0 GLOBALSTAR M070
1 32264U 07048B   24361.13464803 -.00000068  00000-0  19803-3 0  9990
2 32264  51.9763 295.6895 0000812  59.9875  46.1854 12.62308518792796
Epoch: 2024-12-26T03:13Z
Definitive object data (Epoch: 2024-12-26T03:13:53.589Z)
Latitude49.29592°
Longitude-92.65612°
Altitude1,418.654 km
Speed7.157 km/s
True Right ascension03h 23m 44s
True Declination49° 08' 25"
Sunlit
Object was in full shadow at TLE epoch
Visualization TLE readout
Latitude34.17688°
Longitude-176.93364°
Altitude1,415.146 km
Speed7.157 km/s
Apparent Right ascension21h 48m 54s
Apparent Declination1° 26' 51"
Sunlit
Object is in daylight
Visualization observer readout
Local Sidereal Time09:51:54
Azimuth1.134° NNE
Elevation-48.631°
Doppler factor1
Orbital elements
Apogee altitude1,414.459 km
Perigee altitude1,413.193 km
Semi-major axis7,791.963 km
Eccentricity0.0000812
Inclination51.9763°
RAAN295.6895°
Arg. of periapsis59.9875°
True anomaly46.19211°
Mean anomaly46.1854°
Eccentric anomaly46.18876°
Mean motion3.15553 °/min
BSTAR0.00019803
Orbital period114.09 mins
Loading maneuver chart data...
Loading historical data...
Loading historical data...
Loading historical data...
Loading historical data...
Loading historical data...
Loading historical data...
Loading historical data...

GLOBALSTAR M070 Visibility forecast

Observer location: undefined°, undefined

Span
Click to sort rows by Start time (UTC) header in descending order
Start Az.
Max El. time (UTC)
Max El. Az.
Max El.
End time (UTC)
End Az.
14 mins2024-12-26 21:48:42.645Z201.381° SSW2024-12-26 21:54:42.645Z142.871° SSE38.648°2024-12-26 22:02:42.645Z60.056° ENE
15 mins2024-12-26 23:47:42.645Z256.623° W2024-12-26 23:54:42.645Z325.381° NNW40.222°2024-12-27 00:02:42.645Z49.547° ENE
14 mins2024-12-27 01:49:42.645Z296.705° NW2024-12-27 01:56:42.645Z3.206° NNE31.109°2024-12-27 02:03:42.645Z61.635° ENE
15 mins2024-12-27 03:50:42.645Z311.608° NW2024-12-27 03:57:42.645Z20.478° NNE37.788°2024-12-27 04:05:42.645Z96.857° ESE
15 mins2024-12-27 05:50:42.645Z302.615° NW2024-12-27 05:57:42.645Z234.008° WSW42.497°2024-12-27 06:05:42.645Z145.818° SSE
8 mins2024-12-27 07:52:42.645Z268.797° W2024-12-27 07:56:42.645Z238.857° WSW15.349°2024-12-27 08:00:42.645Z210.041° SW
|